TimeEST,TemperatureF,Dew PointF,Humidity,Sea Level PressureIn,VisibilityMPH,Wind Direction,Wind SpeedMPH,Gust SpeedMPH,PrecipitationIn,Events,Conditions,WindDirDegrees,DateUTC
12:14 AM,37.4,30.2,75,30.16,10.0,North,6.9,-,N/A,,Overcast,10,2012-11-04 04:14:00
12:34 AM,37.4,30.2,75,30.16,10.0,NNE,6.9,-,N/A,,Overcast,20,2012-11-04 04:34:00
12:54 AM,35.6,28.4,75,30.16,10.0,NNE,3.5,-,N/A,,Overcast,20,2012-11-04 04:54:00
1:14 AM,35.6,28.4,75,30.16,10.0,North,3.5,-,N/A,,Mostly Cloudy,10,2012-11-04 05:14:00
1:35 AM,33.8,28.4,81,30.16,10.0,Calm,Calm,-,N/A,,Mostly Cloudy,0,2012-11-04 05:35:00
1:55 AM,33.8,30.2,87,30.16,10.0,North,3.5,-,N/A,,Mostly Cloudy,350,2012-11-04 05:55:00
1:15 AM,35.6,30.2,81,30.16,10.0,North,3.5,-,N/A,,Overcast,350,2012-11-04 06:15:00
1:35 AM,35.6,28.4,75,30.16,10.0,North,5.8,-,N/A,,Overcast,350,2012-11-04 06:35:00
1:55 AM,35.6,30.2,81,30.16,10.0,North,5.8,-,N/A,,Overcast,350,2012-11-04 06:55:00
2:15 AM,35.6,30.2,81,30.16,10.0,North,3.5,-,N/A,,Overcast,360,2012-11-04 07:15:00
2:35 AM,35.6,28.4,75,30.15,10.0,Calm,Calm,-,N/A,,Overcast,0,2012-11-04 07:35:00
2:55 AM,35.6,28.4,75,30.15,10.0,NNE,3.5,-,N/A,,Overcast,20,2012-11-04 07:55:00
3:15 AM,33.8,28.4,81,30.15,10.0,North,4.6,-,N/A,,Scattered Clouds,360,2012-11-04 08:15:00
3:36 AM,35.6,28.4,75,30.14,10.0,Calm,Calm,-,N/A,,Scattered Clouds,0,2012-11-04 08:36:00
3:51 AM,33.8,28.4,81,30.15,10.0,Calm,Calm,-,N/A,,Mostly Cloudy,0,2012-11-04 08:51:00
4:11 AM,33.8,28.4,81,30.15,10.0,Calm,Calm,-,N/A,,Overcast,0,2012-11-04 09:11:00
4:31 AM,33.8,28.4,81,30.16,10.0,Calm,Calm,-,N/A,,Overcast,0,2012-11-04 09:31:00
4:51 AM,33.8,28.4,81,30.17,10.0,NNW,4.6,-,N/A,,Overcast,340,2012-11-04 09:51:00
5:11 AM,33.8,28.4,81,30.17,10.0,North,5.8,-,N/A,,Overcast,360,2012-11-04 10:11:00
5:31 AM,33.8,28.4,81,30.17,10.0,NNW,5.8,-,N/A,,Overcast,340,2012-11-04 10:31:00
5:51 AM,33.8,28.4,81,30.17,10.0,North,3.5,-,N/A,,Overcast,350,2012-11-04 10:51:00
6:11 AM,33.8,28.4,81,30.16,10.0,North,4.6,-,N/A,,Overcast,350,2012-11-04 11:11:00
6:31 AM,33.8,28.4,81,30.16,10.0,Calm,Calm,-,N/A,,Overcast,0,2012-11-04 11:31:00
6:52 AM,33.8,28.4,81,30.16,10.0,North,4.6,-,N/A,,Overcast,350,2012-11-04 11:52:00
7:12 AM,33.8,28.4,81,30.17,10.0,NNW,4.6,-,N/A,,Overcast,340,2012-11-04 12:12:00
7:32 AM,33.8,28.4,81,30.18,10.0,NW,4.6,-,N/A,,Overcast,320,2012-11-04 12:32:00
7:52 AM,33.8,28.4,81,30.19,10.0,NNW,4.6,-,N/A,,Overcast,340,2012-11-04 12:52:00
8:12 AM,33.8,28.4,81,30.19,10.0,North,4.6,-,N/A,,Overcast,350,2012-11-04 13:12:00
8:32 AM,35.6,28.4,75,30.19,10.0,North,6.9,-,N/A,,Overcast,350,2012-11-04 13:32:00
8:52 AM,35.6,28.4,75,30.19,10.0,North,8.1,-,N/A,,Overcast,350,2012-11-04 13:52:00
9:12 AM,35.6,28.4,75,30.19,10.0,North,9.2,-,N/A,,Overcast,350,2012-11-04 14:12:00
9:32 AM,37.4,28.4,70,30.18,10.0,NNW,8.1,-,N/A,,Mostly Cloudy,340,2012-11-04 14:32:00
9:52 AM,37.4,28.4,70,30.18,10.0,North,8.1,-,N/A,,Mostly Cloudy,350,2012-11-04 14:52:00
10:12 AM,39.2,28.4,65,30.18,10.0,North,8.1,-,N/A,,Scattered Clouds,360,2012-11-04 15:12:00
10:33 AM,39.2,28.4,65,30.17,10.0,North,6.9,-,N/A,,Scattered Clouds,10,2012-11-04 15:33:00
10:53 AM,39.2,28.4,65,30.17,10.0,NNE,5.8,-,N/A,,Mostly Cloudy,20,2012-11-04 15:53:00
11:13 AM,39.2,26.6,61,30.17,10.0,NNE,3.5,-,N/A,,Overcast,20,2012-11-04 16:13:00
11:33 AM,39.2,26.6,61,30.17,10.0,Calm,Calm,-,N/A,,Overcast,0,2012-11-04 16:33:00
11:53 AM,39.2,26.6,61,30.17,10.0,Calm,Calm,-,N/A,,Overcast,0,2012-11-04 16:53:00
12:13 PM,39.2,26.6,61,30.17,10.0,Calm,Calm,-,N/A,,Overcast,0,2012-11-04 17:13:00
12:33 PM,39.2,26.6,61,30.17,10.0,Calm,Calm,-,N/A,,Overcast,0,2012-11-04 17:33:00
12:53 PM,39.2,26.6,61,30.16,10.0,NW,4.6,-,N/A,,Overcast,320,2012-11-04 17:53:00
1:13 PM,39.2,26.6,61,30.16,10.0,NNE,3.5,-,N/A,,Overcast,30,2012-11-04 18:13:00
1:34 PM,41.0,26.6,57,30.15,10.0,West,3.5,-,N/A,,Mostly Cloudy,260,2012-11-04 18:34:00
1:54 PM,41.0,26.6,57,30.15,10.0,Calm,Calm,-,N/A,,Overcast,0,2012-11-04 18:54:00
2:14 PM,41.0,26.6,57,30.15,10.0,Calm,Calm,-,N/A,,Overcast,0,2012-11-04 19:14:00
2:34 PM,41.0,26.6,57,30.15,10.0,Calm,Calm,-,N/A,,Overcast,0,2012-11-04 19:34:00
2:54 PM,41.0,26.6,57,30.15,10.0,ENE,3.5,-,N/A,,Overcast,60,2012-11-04 19:54:00
3:14 PM,41.0,26.6,57,30.15,10.0,Calm,Calm,-,N/A,,Overcast,0,2012-11-04 20:14:00
3:34 PM,41.0,26.6,57,30.15,10.0,Calm,Calm,-,N/A,,Overcast,0,2012-11-04 20:34:00
3:54 PM,41.0,28.4,61,30.15,10.0,Calm,Calm,-,N/A,,Overcast,0,2012-11-04 20:54:00
4:14 PM,41.0,28.4,61,30.15,10.0,Calm,Calm,-,N/A,,Overcast,0,2012-11-04 21:14:00
4:34 PM,41.0,28.4,61,30.14,10.0,Calm,Calm,-,N/A,,Overcast,0,2012-11-04 21:34:00
4:55 PM,41.0,28.4,61,30.14,10.0,Calm,Calm,-,N/A,,Overcast,0,2012-11-04 21:55:00
5:15 PM,41.0,28.4,61,30.14,10.0,Calm,Calm,-,N/A,,Overcast,0,2012-11-04 22:15:00
5:35 PM,39.2,26.6,61,30.14,10.0,Calm,Calm,-,N/A,,Overcast,0,2012-11-04 22:35:00
5:55 PM,39.2,28.4,65,30.15,10.0,Calm,Calm,-,N/A,,Overcast,0,2012-11-04 22:55:00
6:15 PM,39.2,26.6,61,30.15,10.0,Calm,Calm,-,N/A,,Overcast,0,2012-11-04 23:15:00
6:35 PM,39.2,26.6,61,30.15,10.0,Calm,Calm,-,N/A,,Overcast,0,2012-11-04 23:35:00
6:55 PM,39.2,28.4,65,30.15,10.0,Calm,Calm,-,N/A,,Overcast,0,2012-11-04 23:55:00
7:15 PM,39.2,28.4,65,30.16,10.0,Calm,Calm,-,N/A,,Overcast,0,2012-11-05 00:15:00
7:36 PM,39.2,28.4,65,30.16,10.0,Calm,Calm,-,N/A,,Overcast,0,2012-11-05 00:36:00
7:51 PM,39.2,28.4,65,30.16,10.0,Calm,Calm,-,N/A,,Overcast,0,2012-11-05 00:51:00
8:11 PM,39.2,28.4,65,30.16,10.0,Calm,Calm,-,N/A,,Overcast,0,2012-11-05 01:11:00
8:31 PM,39.2,28.4,65,30.16,10.0,Calm,Calm,-,N/A,,Overcast,0,2012-11-05 01:31:00
8:51 PM,39.2,26.6,61,30.16,10.0,Calm,Calm,-,N/A,,Overcast,0,2012-11-05 01:51:00
9:11 PM,37.4,28.4,70,30.16,10.0,Calm,Calm,-,N/A,,Overcast,0,2012-11-05 02:11:00
9:31 PM,37.4,28.4,70,30.16,10.0,Calm,Calm,-,N/A,,Overcast,0,2012-11-05 02:31:00
9:51 PM,39.2,26.6,61,30.16,10.0,Calm,Calm,-,N/A,,Overcast,0,2012-11-05 02:51:00
10:11 PM,37.4,26.6,65,30.16,10.0,Calm,Calm,-,N/A,,Overcast,0,2012-11-05 03:11:00
10:31 PM,37.4,28.4,70,30.16,10.0,NNW,3.5,-,N/A,,Overcast,330,2012-11-05 03:31:00
10:51 PM,37.4,26.6,65,30.16,10.0,Calm,Calm,-,N/A,,Overcast,0,2012-11-05 03:51:00